Location: Arthez
(43.0833°N, 0.2500°W)
Time: 23:53:43
(UTC+00:00)

PSLV DEB - Visible Passes

Search period start: 10 August 2022 00:00
Search period end: 20 August 2022 00:00
Orbit: 490 x 508 km, 97.6° (Epoch: 09 August)

Date Brightness Start Highest point End Pass type
(mag) Time Alt. Az. Time Alt. Az. Time Alt. Az.
10 Aug ? 20:44:14 10° SW 20:46:13 14° W 20:48:14 10° WNW visible
11 Aug ? 20:23:03 10° SSW 20:26:05 24° W 20:29:08 10° NW visible
12 Aug ? 20:02:27 10° S 20:05:58 41° W 20:09:31 10° NNW visible
13 Aug ? 19:42:12 10° S 19:45:53 76° WSW 19:49:37 10° NNW visible
15 Aug ? 20:37:07 10° SW 20:39:35 17° W 20:42:04 10° NW visible
16 Aug ? 20:16:04 10° SSW 20:19:19 28° W 20:22:35 10° NW visible
17 Aug ? 19:55:27 10° S 19:59:04 51° W 20:02:43 10° NNW visible
18 Aug ? 19:35:09 10° SSE 19:38:51 86° ENE 19:42:35 10° NNW visible
19 Aug ? 20:51:06 10° WSW 20:52:37 12° W 20:54:07 10° WNW visible
